Other Surface Observations
Issued by NWS

Home | Current Version | Previous Version | Text Only | Print | Product List | Glossary On
Versions: 1 2 3 4 5 6 7 8 9 10 11 12 13 14 15 16 17 18 19 20 21 22 23 24 25 26 27 28 29 30 31 32 33 34 35 36 37 38 39 40 41 42 43 44 45 46 47 48 49 50
000
SXUS52 KTAE 300019
OSOTAE
OSOTAE
North Florida/South Alabama/Southwest Georgia Weather Roundup
National Weather Service Tallahassee Florida
800 PM EDT WED JUL 29 2015

Note: "fair" indicates few or no clouds below 12,000 feet with no
significant weather and/or obstructions to visibility.

!FLZ017-115-028-034-025-300100
...North Florida...

CITY           SKY/WX    TMP DP  RH WIND       PRES   REMARKS
TALLAHASSEE    CLOUDY    82  74  76 W17       29.98R THUNDER
APALACHICOLA   LGT RAIN  81  75  82 N3        29.95R
PERRY          MOCLDY    76  76 100 S3        29.96R
CROSS CITY       N/A     76  74  93 S10       29.97R
JACKSONVILLE   MOCLDY    83  73  72 SE9       29.95R
$$

!FLZ112-006-005-002-011-300100
...Florida Panhandle...

CITY           SKY/WX    TMP DP  RH WIND       PRES   REMARKS
MARIANNA       MOCLDY    83  76  79 S8        29.95R HX  91
BONIFAY        FAIR      78  75  90 CALM      29.95F
PANAMA CITY NW LGT RAIN  77  74  90 NE6       29.93F
TYNDALL AFB    CLOUDY    80  77  90 N6        29.94F
TYND DRONE APT FAIR      80  78  93 CALM      29.93F
DE FUNIAK SPR  LGT RAIN  79  76  90 CALM      29.96F
EGLIN AFB      MOCLDY    85  75  73 NW2       29.95F HX  93
DESTIN         CLOUDY    86  76  71 CALM      29.95S HX  96
HURLBURT       CLOUDY    82  75  78 NW5       29.95S
CRESTVIEW      CLOUDY    80  79  96 W3        29.97F
PENSACOLA      CLOUDY    81  76  84 NW8       29.96S
$$

!ALZ063-066-300100
...South Alabama...

CITY           SKY/WX    TMP DP  RH WIND       PRES   REMARKS
DOTHAN         CLOUDY    84  77  79 W7        29.97F HX  94
OZARK CAIRNS   CLOUDY    82  77  87 W8        29.94S HX  90
FT RUCKER HELI CLOUDY    83  78  85 CALM      29.93F HX  93
RUCKER HELI 3  MOCLDY    82  75  80 W7        29.96S
RUCKER HELI 2  FAIR      82  81  96 NW3       29.94S HX  95
FLORALA APT    CLOUDY    78  76  93 CALM      29.98S
ANDALUSIA      CLOUDY    83  76  79 W3        29.96F HX  91
TROY           CLOUDY    83  75  77 CALM      29.97R HX  90
EUFALA         FAIR      86  78  77 CALM      29.91F HX  98
MOBILE         CLOUDY    83  75  77 E5        30.00S HX  90
$$

!GAZ120>161-300100
...Southwest and South Central Georgia...

CITY           SKY/WX    TMP DP  RH WIND       PRES   REMARKS
THOMASVILLE    FAIR      81  77  89 S3        29.95R
BAINBRIDGE     TSTM      81  77  89 SE3G16    29.94R
MOODY AFB      PTCLDY    84  74  71 S6        29.93R HX  91
VALDOSTA       PTCLDY    81  77  88 CALM      29.94R
MOULTRIE       DRIZZLE   81  77  89 CALM      29.94R
BLAKELY        MOCLDY    88  77  70 W5        29.93R HX 100
ALBANY         LGT RAIN  79  75  87 S13       29.97R FOG
TIFTON         MOCLDY    81  76  85 NW8       29.95R
FITZGERALD     FAIR      85  73  66 W5        29.95R HX  91
CORDELE        FAIR      91  76  61 SE8       29.93S HX 102
AMERICUS       FAIR      84  72  65 SW9       29.95S
HOMERVILLE     FAIR      90  81  74 CALM      29.93R HX 108
$$

!GMZ750-755-770-775-300100
...Coastal and Buoy Obs...

STATION/POSITION TIME  TEMP    WIND        PRES    VSBY  WAVE
                       AIR SEA DIR/SP/G                  HT/PER
                 (UTC) (F)     (DEG/KT/KT) (MB)    (MI)  (FT/S)
KEATON BEACH     0000   83     180/ 17/ 20 1014.8R
CEDAR KEY        0000   80     170/ 12/ 14 1015.4F
C TOWER          0000   86     270/ 13/ 14 1014.6R
APALACHICOLA BUO 2350   80 86  230/ 14/ 16 1014.8R         3/ 5
PANAMA CITY BUOY 2350   87 88  280/ 12/ 14 1014.7R         2/ 5
MOBILE BUOY      2350   88 92  250/  6/  8 1015.4R         1/ 4
ORANGE BCH AL BU 2350   84 85  170/  8/  8 1014.0F         1/ 3
$$



USA.gov is the U.S. government's official web portal to all federal, state and local government web resources and services.